TimeEDT,TemperatureF,Dew PointF,Humidity,Sea Level PressureIn,VisibilityMPH,Wind Direction,Wind SpeedMPH,Gust SpeedMPH,PrecipitationIn,Events,Conditions,WindDirDegrees,DateUTC
12:56 AM,46.9,39.9,77,30.05,10.0,SSE,12.7,-,N/A,,Clear,150,2013-04-24 04:56:00
1:56 AM,45.0,39.9,82,30.03,10.0,SSE,10.4,-,N/A,,Clear,160,2013-04-24 05:56:00
2:56 AM,45.0,39.9,82,30.02,10.0,SSE,10.4,-,N/A,,Clear,160,2013-04-24 06:56:00
3:56 AM,43.9,38.8,82,30.00,10.0,SSE,9.2,-,N/A,,Clear,150,2013-04-24 07:56:00
4:56 AM,43.9,38.8,82,29.99,10.0,SSE,11.5,-,N/A,,Clear,150,2013-04-24 08:56:00
5:56 AM,45.0,38.8,79,29.99,10.0,SSE,9.2,-,N/A,,Partly Cloudy,150,2013-04-24 09:56:00
6:17 AM,44.6,39.2,81,29.97,10.0,SSE,10.4,-,N/A,,Mostly Cloudy,150,2013-04-24 10:17:00
6:56 AM,45.9,38.8,76,29.98,10.0,SE,10.4,-,N/A,,Mostly Cloudy,140,2013-04-24 10:56:00
7:56 AM,47.8,39.9,74,29.96,10.0,South,13.8,-,N/A,,Overcast,170,2013-04-24 11:56:00
8:56 AM,48.9,39.9,71,29.95,10.0,SSE,10.4,-,N/A,,Mostly Cloudy,160,2013-04-24 12:56:00
9:56 AM,50.0,41.0,71,29.93,10.0,South,11.5,-,0.00,,Overcast,170,2013-04-24 13:56:00
10:56 AM,52.9,41.9,66,29.89,10.0,SSE,12.7,-,N/A,,Mostly Cloudy,150,2013-04-24 14:56:00
11:56 AM,61.0,45.0,56,29.85,10.0,South,15.0,19.6,N/A,,Scattered Clouds,170,2013-04-24 15:56:00
12:56 PM,65.8,46.9,50,29.81,10.0,South,15.0,-,N/A,,Scattered Clouds,170,2013-04-24 16:56:00
1:56 PM,64.9,46.9,52,29.78,10.0,South,9.2,-,N/A,,Scattered Clouds,180,2013-04-24 17:56:00
2:56 PM,66.9,47.8,50,29.77,10.0,South,11.5,-,N/A,,Mostly Cloudy,190,2013-04-24 18:56:00
3:56 PM,66.9,48.9,52,29.75,10.0,SSW,6.9,-,0.00,,Mostly Cloudy,210,2013-04-24 19:56:00
4:56 PM,64.9,48.9,56,29.72,10.0,Calm,Calm,-,0.00,,Overcast,0,2013-04-24 20:56:00
5:56 PM,61.0,52.9,75,29.76,6.0,West,20.7,25.3,0.06,Rain,Light Rain,260,2013-04-24 21:56:00
6:56 PM,57.9,54.0,87,29.74,10.0,South,13.8,20.7,0.04,Rain,Light Rain,190,2013-04-24 22:56:00
7:56 PM,57.9,52.9,83,29.71,10.0,South,11.5,-,0.00,,Mostly Cloudy,180,2013-04-24 23:56:00
8:56 PM,54.9,48.9,80,29.79,6.0,NNW,16.1,33.4,0.03,Rain,Rain,330,2013-04-25 00:56:00
8:59 PM,53.6,48.2,82,29.79,10.0,NNW,13.8,29.9,0.01,Rain,Rain,330,2013-04-25 00:59:00
9:56 PM,45.9,41.0,83,29.89,10.0,NW,13.8,21.9,0.02,Rain,Light Rain,310,2013-04-25 01:56:00
10:56 PM,41.9,36.0,79,29.95,10.0,West,18.4,31.1,0.00,,Overcast,280,2013-04-25 02:56:00
11:56 PM,39.9,32.9,76,30.00,10.0,WNW,18.4,25.3,N/A,,Overcast,300,2013-04-25 03:56:00